Stations météo

Publicité
Perpignan, France (7747): Température de l'air & dewpoint: 04.12.2018 17:00:00 - 10.12.2018 17:00:00 (CET)Perpignan, France (7747): Température de l'air 5cm: 04.12.2018 17:00:00 - 10.12.2018 17:00:00 (CET)Perpignan, France (7747): Température de l'air -20cm & Température de l'air -100cm: 04.12.2018 17:00:00 - 10.12.2018 17:00:00 (CET)Perpignan, France (7747): Vitesse du vent & gusts: 04.12.2018 17:00:00 - 10.12.2018 17:00:00 (CET)Perpignan, France (7747): Direction du vent: 04.12.2018 17:00:00 - 10.12.2018 17:00:00 (CET)Perpignan, France (7747): reduced air pressure: 04.12.2018 17:00:00 - 10.12.2018 17:00:00 (CET)Perpignan, France (7747): visibility: 04.12.2018 17:00:00 - 10.12.2018 17:00:00 (CET)Perpignan, France (7747): Quantités de précipitations: 04.12.2018 17:00:00 - 10.12.2018 17:00:00 (CET)
Date & Time tt [°C] td [°C] tt 5cm [°C] tt -20cm [°C] tt -100cm [°C] ff [km/h] ff [knt] fx [km/h] fx [knt] dd ppp [hPa] vv [km] rr [mm]
10.12.2018 17:00:00 12,4 5,1 11,4 12,8 14,6 32 17 67 36 NW 1027,0 48 0,0
10.12.2018 16:00:00 13,1 5,0 12,5 12,8 14,6 36 19 64 35 NNW 1026,9 35 0,0
10.12.2018 15:00:00 13,6 4,2 13,6 12,7 14,7 35 19 65 35 NNW 1027,8 34 0,0
10.12.2018 14:00:00 13,7 4,6 14,5 12,7 14,6 41 22 69 38 NW 1028,2 27 0,0
10.12.2018 13:00:00 13,2 6,1 14,6 12,6 14,6 35 19 74 40 NNW 1028,9 25 0,0
10.12.2018 12:00:00 13,7 5,6 15,9 12,6 14,6 36 19 64 35 NW 1029,8 30 0,0
10.12.2018 11:00:00 13,4 5,0 15,0 12,6 14,7 37 20 64 35 NNW 1030,6 20 0,0
10.12.2018 10:00:00 13,2 4,3 12,0 12,6 14,7 32 17 56 30 NW 1030,5 20 0,0
10.12.2018 09:00:00 12,5 4,5 11,9 12,6 14,7 34 19 57 31 NW 1030,1 50 0,0
10.12.2018 08:00:00 12,6 4,3 11,9 12,6 14,7 23 12 50 27 NNW 1029,8 54 0,0
10.12.2018 07:00:00 12,9 4,8 12,3 12,6 14,7 24 13 54 29 NNW 1029,3 50 0,0
10.12.2018 06:00:00 12,9 4,8 11,0 12,6 14,6 20 11 42 23 NW 1029,1 50 0,0
10.12.2018 05:00:00 12,7 3,9 11,8 12,7 14,7 16 9 43 23 NW 1029,5 54 0,0
10.12.2018 04:00:00 13,2 4,3 12,3 12,7 14,7 26 14 58 31 NW 1029,1 54 0,0
10.12.2018 03:00:00 13,3 5,0 11,8 12,7 14,7 19 10 34 19 NNW 1029,1 46 0,0
10.12.2018 02:00:00 13,0 4,7 12,2 12,7 14,7 11 6 38 20 NW 1029,0 54 0,0
10.12.2018 01:00:00 13,5 3,8 12,2 12,8 14,6 16 8 44 24 NW 1029,1 52 0,0
10.12.2018 00:00:00 13,7 2,9 11,8 12,9 14,7 23 13 48 26 NW 1028,6 60 0,0
09.12.2018 23:00:00 13,5 2,7 11,4 12,9 14,6 16 9 76 41 NW 1028,0 60 0,0
09.12.2018 22:00:00 13,6 3,9 12,5 12,9 14,6 44 24 77 41 NW 1026,6 48 0,0
09.12.2018 21:00:00 14,0 4,6 13,4 12,9 14,7 39 21 96 52 NW 1026,4 46 0,0
09.12.2018 20:00:00 14,7 6,0 13,9 13,0 14,7 54 29 96 52 NW 1025,4 57 0,0
09.12.2018 19:00:00 15,6 5,2 14,3 13,0 14,7 53 29 86 47 WNW 1023,6 60 0,0
09.12.2018 18:00:00 15,6 4,3 14,6 13,0 14,7 42 23 84 45 NW 1023,5 60 0,0
09.12.2018 17:00:00 15,7 5,9 14,8 12,9 14,7 50 27 90 49 WNW 1022,7 54 0,0
09.12.2018 16:00:00 16,6 5,8 16,7 12,8 14,7 42 23 92 50 NW 1022,1 23 0,0
09.12.2018 15:00:00 17,2 5,2 17,3 12,7 14,7 50 27 88 47 WNW 1021,7 24 0,0
09.12.2018 14:00:00 17,7 6,2 19,3 12,6 14,7 47 26 93 50 WNW 1022,0 38 0,0
09.12.2018 13:00:00 17,7 6,2 17,8 12,4 14,7 46 25 81 44 NW 1022,2 55 0,0
09.12.2018 12:00:00 17,3 6,5 16,8 12,4 14,7 37 20 70 38 NW 1022,8 60 0,0
09.12.2018 11:00:00 16,4 7,3 16,0 12,3 14,7 39 21 78 42 WNW 1023,8 55 0,0
09.12.2018 10:00:00 16,1 7,6 16,1 12,2 14,7 39 21 74 40 NW 1023,3 26 0,0
09.12.2018 09:00:00 16,3 7,2 15,1 12,2 14,7 40 22 75 40 NW 1023,1 41 0,0
09.12.2018 08:00:00 16,2 7,4 14,9 12,2 14,6 44 24 74 40 WNW 1023,0 60 0,0
09.12.2018 07:00:00 16,3 7,5 14,6 12,2 14,7 35 19 64 35 WNW 1023,2 60 0,0
09.12.2018 06:00:00 16,3 7,0 13,0 12,2 14,7 32 18 53 28 WNW 1022,8 60 0,0
09.12.2018 05:00:00 15,3 5,8 12,2 12,2 14,7 19 10 37 20 WNW 1023,0 60 0,0
09.12.2018 04:00:00 16,3 4,6 14,3 12,3 14,7 22 12 51 27 WNW 1023,1 60 0,0
09.12.2018 03:00:00 16,8 5,4 7,8 12,4 14,7 25 13 40 22 WNW 1023,0 60 0,0
09.12.2018 02:00:00 9,5 4,3 7,4 12,4 14,7 15 8 24 13 SW 1023,3 60 0,0
09.12.2018 01:00:00 10,3 5,1 5,4 12,5 14,7 5 3 21 11 SW 1024,1 60 0,0
09.12.2018 00:00:00 8,1 4,1 4,9 12,6 14,7 6 3 15 8 WSW 1024,5 51 0,0
08.12.2018 23:00:00 9,0 4,0 5,5 12,7 14,7 6 3 17 9 SW 1025,1 59 0,0
08.12.2018 22:00:00 9,6 5,0 6,2 12,7 14,7 8 4 17 9 W 1025,2 60 0,0
08.12.2018 21:00:00 12,4 5,8 8,4 12,8 14,7 8 4 24 13 WSW 1025,4 60 0,0
08.12.2018 20:00:00 12,9 5,8 11,2 12,8 14,7 18 10 37 20 NW 1025,8 60 0,0
08.12.2018 19:00:00 13,0 5,4 11,9 12,9 14,7 27 14 41 22 WNW 1025,5 60 0,0
08.12.2018 18:00:00 13,9 4,5 12,6 12,8 14,7 23 12 41 22 NW 1025,3 60 0,0
08.12.2018 17:00:00 14,7 4,1 13,4 12,8 14,7 24 13 44 24 NNW 1025,3 60 0,0
08.12.2018 16:00:00 15,4 3,5 15,6 12,7 14,7 32 17 56 30 NW 1025,7 29 0,0
08.12.2018 15:00:00 15,8 2,9 15,9 12,6 14,7 32 17 64 35 NW 1025,9 27 0,0
08.12.2018 14:00:00 15,9 3,0 17,5 12,5 14,7 38 20 65 35 NW 1025,9 33 0,0
08.12.2018 13:00:00 15,5 3,6 18,0 12,4 14,7 32 17 56 30 NW 1026,3 50 0,0
08.12.2018 12:00:00 15,2 3,3 17,5 12,4 14,7 40 22 59 32 NW 1027,4 60 0,0
08.12.2018 11:00:00 14,4 4,1 13,3 12,4 14,7 26 14 46 25 WNW 1027,6 60 0,0
08.12.2018 10:00:00 12,7 4,1 12,1 12,4 14,7 27 14 47 25 WNW 1026,9 44 0,0
08.12.2018 09:00:00 12,0 4,5 10,3 12,5 14,7 17 9 31 17 WNW 1027,1 59 0,0
08.12.2018 08:00:00 11,5 4,5 9,0 12,5 14,7 18 10 32 18 NW 1026,8 60 0,0
08.12.2018 07:00:00 10,9 4,8 8,8 12,6 14,7 17 9 36 20 NW 1026,4 60 0,0
08.12.2018 06:00:00 10,9 4,6 9,3 12,6 14,7 28 15 50 27 NW 1026,2 39 0,0
08.12.2018 05:00:00 12,0 4,2 9,4 12,7 14,7 21 11 31 17 NW 1026,1 60 0,0
08.12.2018 04:00:00 11,8 4,3 10,2 12,8 14,7 13 7 36 19 NW 1026,7 60 0,0
08.12.2018 03:00:00 12,0 4,2 10,2 12,8 14,7 16 9 48 26 NW 1026,2 60 0,0
08.12.2018 02:00:00 12,4 4,6 10,8 12,9 14,7 22 12 41 22 NW 1025,3 60 0,0
08.12.2018 01:00:00 13,1 5,7 10,3 12,9 14,7 24 13 54 29 NW 1024,9 60 0,0
08.12.2018 00:00:00 11,5 8,0 9,8 12,9 14,7 22 12 71 38 NNW 1024,3 49 0,0
07.12.2018 23:00:00 13,2 7,4 12,4 13,0 14,7 45 25 72 39 NNW 1022,5 57 0,0
07.12.2018 22:00:00 14,3 8,9 13,1 13,0 14,7 40 22 73 40 NW 1023,0 20 0,0
07.12.2018 21:00:00 16,5 8,7 14,8 13,0 14,7 31 17 68 37 NW 1021,6 60 0,0
07.12.2018 20:00:00 16,7 7,9 9,8 13,0 14,7 29 15 44 24 NW 1021,5 60 0,0
07.12.2018 19:00:00 12,9 9,0 10,4 13,0 14,7 6 3 10 5 S 1022,3 35 0,0
07.12.2018 18:00:00 13,4 8,7 8,6 13,0 14,7 6 3 10 6 E 1022,0 50 0,0
07.12.2018 17:00:00 14,9 7,4 9,6 12,9 14,7 5 3 11 6 S 1021,9 55 0,0
07.12.2018 16:00:00 16,9 7,3 17,1 12,8 14,7 8 4 17 9 SW 1021,7 60 0,0
07.12.2018 15:00:00 17,1 7,2 17,4 12,7 14,7 14 7 23 12 S 1021,2 52 0,0
07.12.2018 14:00:00 16,9 6,4 20,6 12,6 14,7 4 2 22 12 E 1021,9 54 0,0
07.12.2018 13:00:00 16,6 6,4 18,8 12,5 14,7 16 9 29 16 WNW 1023,5 60 0,0
07.12.2018 12:00:00 16,1 6,5 16,0 12,4 14,7 16 9 27 14 NW 1024,3 48 0,0
07.12.2018 11:00:00 13,7 7,0 15,6 12,4 14,7 11 6 24 13 W 1025,0 56 0,0
07.12.2018 10:00:00 12,1 8,0 8,8 12,5 14,7 7 4 13 7 SW 1025,0 19 0,0
07.12.2018 09:00:00 7,9 5,4 6,3 12,6 14,7 10 5 17 9 WSW 1024,8 60 0,0
07.12.2018 08:00:00 8,4 5,1 5,1 12,8 14,7 14 7 19 10 WSW 1024,7 60 0,0
07.12.2018 07:00:00 8,1 5,2 6,2 12,8 14,7 11 6 18 10 WSW 1024,7 60 0,0
07.12.2018 06:00:00 7,9 5,5 6,2 13,0 14,7 13 7 19 10 WSW 1024,9 57 0,0
07.12.2018 05:00:00 8,5 5,9 5,1 13,0 14,7 12 7 16 9 SW 1025,7 60 0,0
07.12.2018 04:00:00 9,2 7,0 5,2 13,2 14,7 8 4 11 6 W 1025,9 60 0,0
07.12.2018 03:00:00 10,9 7,2 7,2 13,2 14,7 3 2 20 11 SSE 1026,3 60 0,0
07.12.2018 02:00:00 12,7 8,0 8,1 13,3 14,7 15 8 26 14 NW 1026,3 60 0,0
07.12.2018 01:00:00 13,5 7,9 10,8 13,3 14,6 15 8 26 14 NW 1026,5 60 0,0
07.12.2018 00:00:00 13,6 8,0 10,0 13,4 14,7 11 6 39 21 NW 1027,1 60 0,0
06.12.2018 23:00:00 14,6 8,1 11,9 13,5 14,7 21 11 35 19 NNW 1027,3 60 0,0
06.12.2018 22:00:00 15,1 8,1 12,9 13,5 14,7 19 10 41 22 NW 1026,9 60 0,0
06.12.2018 21:00:00 15,1 8,1 12,3 13,6 14,6 16 8 37 20 NW 1027,2 60 0,0
06.12.2018 20:00:00 15,5 7,8 13,8 13,6 14,6 18 10 38 20 NNW 1027,1 60 0,0
06.12.2018 19:00:00 16,1 7,6 14,1 13,6 14,7 19 10 50 27 NW 1026,3 60 0,0
06.12.2018 18:00:00 16,6 7,2 14,7 13,6 14,7 21 11 55 30 NNW 1025,8 60 0,0
06.12.2018 17:00:00 17,0 7,1 15,6 13,5 14,7 26 14 46 25 NW 1025,4 60 0,0
06.12.2018 16:00:00 18,4 8,1 18,1 13,4 14,7 20 11 42 23 NW 1025,4 59 0,0
06.12.2018 15:00:00 18,9 7,3 18,9 13,3 14,6 27 15 53 28 NW 1025,0 60 0,0
06.12.2018 14:00:00 18,8 8,2 18,3 13,2 14,6 31 17 72 39 NW 1024,3 41 0,0
06.12.2018 13:00:00 17,8 8,4 18,3 13,0 14,6 42 23 72 39 NW 1024,7 54 0,0
06.12.2018 12:00:00 17,6 8,4 17,2 13,0 14,6 44 24 74 40 NW 1025,8 60 0,0
06.12.2018 11:00:00 16,8 9,0 15,8 12,9 14,6 29 16 51 27 NW 1026,9 49 0,0
06.12.2018 10:00:00 16,1 10,0 13,3 12,9 14,6 16 9 29 16 NW 1026,8 60 0,0
06.12.2018 09:00:00 14,8 11,0 12,8 12,9 14,7 14 7 36 19 NW 1026,6 58 0,0
06.12.2018 08:00:00 15,6 10,1 14,3 12,8 14,6 13 7 33 18 NNW 1025,8 20 0,0
06.12.2018 07:00:00 15,9 9,3 14,0 12,9 14,6 11 6 25 14 N 1024,8 60 0,0
06.12.2018 06:00:00 16,9 9,3 15,2 12,8 14,6 14 8 47 26 NNW 1023,7 60 0,0
06.12.2018 05:00:00 17,2 9,9 12,0 13,0 14,6 24 13 45 25 NNW 1023,3 60 0,0
06.12.2018 04:00:00 14,9 9,0 10,2 13,0 14,6 5 3 21 11 NNW 1023,7 60 0,0
06.12.2018 03:00:00 14,7 9,5 5,8 13,1 14,6 12 7 24 13 NNW 1024,1 60 0,0
06.12.2018 02:00:00 9,0 8,2 5,7 13,2 14,6 2 1 11 6 SSE 1024,2 4,7 0,0
06.12.2018 01:00:00 9,9 9,3 6,2 13,3 14,6 3 1 11 6 ESE 1024,5 3,0 0,0
06.12.2018 00:00:00 11,2 10,7 5,7 13,4 14,7 8 4 15 8 SSW 1024,6 4,4 0,0
05.12.2018 23:00:00 11,2 9,8 5,8 13,4 14,7 3 2 6 3 WSW 1025,0 6 0,0
05.12.2018 22:00:00 13,5 11,7 11,6 13,4 14,6 5 3 12 6 NW 1024,7 15 0,0
05.12.2018 21:00:00 13,7 11,9 13,3 13,4 14,6 6 4 10 5 N 1023,9 17 0,0
05.12.2018 20:00:00 13,8 12,2 12,8 13,4 14,6 4 2 6 4 NW 1023,1 18 0,0
05.12.2018 19:00:00 13,6 12,0 10,3 13,3 14,6 2 1 5 3 NW 1022,8 18 0,0
05.12.2018 18:00:00 13,8 11,7 10,2 13,3 14,6 3 2 7 4 N 1022,7 18 0,0
05.12.2018 17:00:00 14,8 11,9 14,3 13,1 14,6 4 2 12 7 E 1022,5 25 0,0
05.12.2018 16:00:00 15,5 12,4 15,9 12,9 14,6 9 5 15 8 ENE 1023,0 27 0,0
05.12.2018 15:00:00 16,1 12,6 17,7 12,7 14,6 9 5 16 9 SSE 1022,8 35 0,0
05.12.2018 14:00:00 15,7 12,4 17,4 12,5 14,6 6 3 13 7 ESE 1023,0 31 0,0
05.12.2018 13:00:00 15,9 12,3 19,0 12,4 14,6 0 0 13 7 N 1023,6 20 0,0
05.12.2018 12:00:00 15,8 12,0 19,1 12,3 14,6 4 2 9 5 SSE 1024,2 26 0,0
05.12.2018 11:00:00 14,1 12,8 14,2 12,3 14,6 0 0 7 4 N 1024,8 34 0,0
05.12.2018 10:00:00 12,0 11,1 9,2 12,3 14,6 2 1 6 4 WSW 1024,6 44 0,0
05.12.2018 09:00:00 8,9 8,8 5,5 12,4 14,6 3 1 7 4 WSW 1024,4 48 0,0
05.12.2018 08:00:00 7,9 7,8 3,5 12,5 14,6 5 3 11 6 W 1024,0 51 0,0
05.12.2018 07:00:00 7,5 7,1 3,6 12,6 14,6 4 2 9 5 W 1023,8 47 0,0
05.12.2018 06:00:00 7,9 7,5 4,6 12,7 14,5 5 3 10 5 W 1023,7 36 0,0
05.12.2018 05:00:00 8,1 7,3 4,8 12,8 14,5 5 3 9 5 W 1023,7 60 0,0
05.12.2018 04:00:00 8,8 8,7 4,4 13,0 14,6 3 1 11 6 WNW 1023,8 60 0,0
05.12.2018 03:00:00 8,9 8,4 4,7 13,1 14,6 4 2 7 4 W 1024,0 51 0,0
05.12.2018 02:00:00 9,4 8,8 5,4 13,2 14,6 6 4 10 6 W 1023,8 52 0,0
05.12.2018 01:00:00 9,6 9,0 5,8 13,3 14,5 5 3 11 6 WSW 1023,9 40 0,0
05.12.2018 00:00:00 10,3 9,7 5,9 13,4 14,5 5 3 8 4 SSW 1024,4 40 0,0
04.12.2018 23:00:00 10,7 9,8 7,8 13,5 14,5 3 2 11 6 W 1024,2 59 0,0
04.12.2018 22:00:00 11,4 10,3 7,1 13,6 14,5 8 5 12 7 WSW 1024,3 60 0,0
04.12.2018 21:00:00 12,3 10,5 7,0 13,7 14,5 5 3 12 7 SW 1024,1 52 0,0
04.12.2018 20:00:00 13,9 10,7 7,9 13,7 14,5 4 2 11 6 SE 1023,8 51 0,0
04.12.2018 19:00:00 14,1 11,3 8,1 13,8 14,5 5 3 8 4 NNW 1023,2 60 0,0
04.12.2018 18:00:00 15,9 11,3 10,2 13,7 14,5 0 0 11 6 N 1023,0 60 0,0
04.12.2018 17:00:00 16,9 11,6 15,0 13,6 14,5 3 2 18 10 NE 1022,9 60 0,0

tt = Température de l'air
td = dewpoint
tt 5cm = Température de l'air 5cm
tt -20cm = Température de l'air -20cm
tt -100cm = Température de l'air -100cm
ff = Vitesse du vent
fx = gusts
dd = Direction du vent
ppp = reduced air pressure
vv = visibility
rr = Quantités de précipitations

stations d'obs. à proximité